This is the latest recevied weather packets stored in our database for station/object K6CEG. If no packets are shown the sender has not sent any weather packets the latest 10 day(s).
| Time | Temp. | Humidity | Pressure | Rain* | Wind** | Luminosity | Snow |
|---|---|---|---|---|---|---|---|
| 1788043964 | 36.11° C | 29% | 1011.9 hPa | 0 mm | - | 55 W/m² | - |
| 1788043659 | 36.11° C | 29% | 1012.1 hPa | 0 mm | - | 95 W/m² | - |
| 1788043354 | 35.56° C | 30% | 1012.2 hPa | 0 mm | - | 66 W/m² | - |
| 1788043054 | 36.11° C | 30% | 1012.3 hPa | 0 mm | - | 62 W/m² | - |
| 1788042749 | 36.67° C | 30% | 1012.3 hPa | 0 mm | - | 58 W/m² | - |
| 1788042448 | 36.67° C | 30% | 1012.2 hPa | 0 mm | - | 61 W/m² | - |
| 1788042144 | 36.67° C | 31% | 1012.4 hPa | 0 mm | - | 59 W/m² | - |
| 1788041839 | 36.67° C | 31% | 1012.5 hPa | 0 mm | - | 89 W/m² | - |
| 1788041534 | 36.11° C | 31% | 1012.5 hPa | 0 mm | - | 78 W/m² | - |
| 1788041229 | 36.11° C | 32% | 1012.5 hPa | 0 mm | - | 302 W/m² | - |
| 1788040927 | 36.67° C | 31% | 1012.6 hPa | 0 mm | - | 340 W/m² | - |
| 1788040626 | 36.11° C | 31% | 1012.6 hPa | 0 mm | - | 95 W/m² | - |
| 1788040322 | 36.11° C | 32% | 1012.6 hPa | 0 mm | - | 344 W/m² | - |
| 1788040022 | 36.11° C | 32% | 1013 hPa | 0 mm | - | 105 W/m² | - |
| 1788039716 | 36.11° C | 32% | 1012.7 hPa | 0 mm | - | 146 W/m² | - |
| 1788039411 | 36.67° C | 32% | 1012.7 hPa | 0 mm | - | 452 W/m² | - |
| 1788039107 | 36.67° C | 32% | 1012.9 hPa | 0 mm | - | 668 W/m² | - |
| 1788038802 | 36.11° C | 32% | 1013 hPa | 0 mm | - | 724 W/m² | - |
| 1788038497 | 35.56° C | 32% | 1013 hPa | 0 mm | - | 620 W/m² | - |
| 1788038196 | 35.56° C | 33% | 1013.2 hPa | 0 mm | - | 233 W/m² | - |
| 1788037897 | 36.11° C | 36% | 1013.1 hPa | 0 mm | - | 299 W/m² | - |
| 1788037592 | 35.56° C | 35% | 1013.3 hPa | 0 mm | - | 423 W/m² | - |
| 1788037287 | 35.56° C | 35% | 1013.2 hPa | 0 mm | - | 255 W/m² | - |
| 1788036986 | 37.22° C | 33% | 1013.3 hPa | 0 mm | - | 341 W/m² | - |
| 1788036683 | 36.67° C | 34% | 1013.5 hPa | 0 mm | - | 686 W/m² | - |
* Rain latest hour (hover to see other rain measurements)
** Current wind speed in m/s (hover to see current wind gust speed)